#timestamp,LO_Frequency,Hit,StdDev 
1557547215.4,286046999.1,P
1557547235.2,286046998.3,N
1557547255.0,286047000.6,N
1557547255.9,286047000.6,N
1557547275.8,286046999.4,N
1557547295.6,286046996.9,N
1557547315.4,286046996.5,N
1557547335.3,286047001.2,N
1557547355.1,286047000.1,N
1557547375.9,286046998.8,N
1557547395.7,286047000.8,N
1557547415.5,286047000.9,N
1557547435.4,286047000.4,N
1557547455.2,286047002.4,N
1557547475.0,286047001.2,N
1557547506.0,286046997.0,E
1557547515.9,286046999.5,N
1557547535.7,286047002.7,P
1557547555.6,286047003.9,N
1557547575.4,286047006.0,Y
1557547595.2,286047003.9,P
1557547615.1,286047001.3,N
1557547616.0,286047001.3,N
1557547635.8,286047002.6,N
1557547655.7,286046999.8,N
1557547675.5,286046999.9,N
1557547695.3,286047002.9,N
1557547715.2,286047006.0,Y
1557547735.0,286047003.0,P
1557547735.9,286047003.0,P
1557547755.7,286047001.8,N
1557547775.6,286047005.8,Y
1557547795.4,286047000.8,P
1557547815.3,286047000.9,N
1557547835.1,286046999.8,N
1557547855.8,286047000.2,N
1557547875.7,286047000.2,N
1557547895.5,286047000.2,N
1557547915.4,286046999.9,N
1557547935.8,286046998.6,N
1557547955.6,286046997.1,Y
1557547975.5,286046997.9,P
1557547995.3,286046997.7,N
1557548015.2,286046993.6,P
1557548035.9,286046996.3,N
1557548055.7,286046993.3,Y
1557548075.6,286046996.6,P
1557548095.4,286046999.9,N
1557548115.2,286046998.1,N
1557548135.1,286047000.9,N
1557548136.0,286047000.9,N
1557548155.8,286046998.7,N
1557548175.7,286046997.3,N
1557548195.5,286046997.3,N
1557548215.3,286046999.1,N
1557548235.2,286047000.9,N
1557548255.0,286047001.8,N
1557548255.9,286047001.8,N
1557548275.7,286047003.9,N
1557548295.6,286047004.1,N
1557548315.4,286047004.3,N
1557548335.3,286047004.9,N
1557548355.1,286047003.6,N
1557548356.0,286047003.6,N
1557548375.8,286047001.3,N
1557548395.7,286047000.1,N
1557548415.5,286047000.5,N
1557548435.3,286047001.0,N
1557548455.2,286047000.6,N
1557548475.0,286046998.5,N
1557548475.9,286046998.5,N
1557548495.8,286046996.6,N
1557548515.6,286046998.1,N
1557548535.4,286047000.4,N
1557548555.3,286046998.2,N
1557548575.1,286047000.5,N
1557548595.8,286046998.3,N
1557548615.7,286046998.2,N
1557548635.5,286046998.8,N
1557548655.4,286046999.4,N
1557548675.2,286046999.4,N
1557548695.0,286046998.1,N
1557548695.9,286046998.1,N
1557548715.8,286047001.2,N
1557548735.6,286046998.4,N
1557548755.5,286047000.1,N
1557548775.3,286047002.6,N
1557548795.1,286047001.7,N
1557548815.9,286047001.0,N
1557548835.7,286047001.5,N
1557548855.5,286047002.5,N
1557548875.4,286047001.1,N
1557548895.2,286047000.9,N
1557548915.0,286047000.8,N
1557548916.0,286047000.8,N
1557548935.8,286046999.1,N
1557548955.6,286047001.0,N
1557548975.5,286046999.8,N
1557548995.3,286047001.4,N
1557549015.1,286046999.7,N
1557549035.9,286047001.6,N
1557549055.7,286047001.7,N
1557549075.6,286047004.4,Y
1557549095.4,286047003.6,P
1557549115.2,286047007.2,P
1557549135.1,286047004.6,N
1557549136.0,286047004.6,N
1557549155.8,286047001.4,N
1557549175.6,286047000.2,N
1557549195.5,286047001.9,N
1557549215.3,286046999.9,N
1557549235.2,286047000.9,N
1557549255.9,286047002.8,N
1557549275.4,286047000.9,N
1557549295.2,286046998.4,N
1557549315.1,286047000.8,N
1557549316.0,286047000.8,N
1557549335.8,286047001.0,N
1557549355.7,286047000.5,N
1557549375.5,286047000.8,N
1557549395.3,286047001.6,N
1557549415.2,286047001.6,N
1557549435.0,286047003.2,N
1557549435.9,286047003.2,N
1557549455.8,286046999.9,N
1557549475.6,286047000.2,N
1557549495.4,286047000.9,N
1557549515.3,286047001.2,N
1557549535.1,286047004.2,N
1557549555.9,286047001.5,N
1557549575.7,286046999.7,N
1557549595.5,286046999.7,N
1557549615.4,286047002.7,N
1557549635.2,286047002.3,N
1557549655.0,286047000.2,N
1557549655.9,286047000.2,N
1557549675.8,286047002.2,N
1557549695.6,286047001.6,N
1557549715.5,286046999.7,N
1557549735.3,286047003.8,Y
1557549755.1,286046998.2,P
1557549775.9,286046996.9,N
1557549795.7,286046999.4,N
1557549815.6,286046997.2,N
1557549835.4,286046999.6,N
1557549855.2,286047000.7,N
1557549875.1,286047000.6,N
1557549876.0,286047000.6,N
1557549895.8,286047001.0,N
1557549915.6,286047000.6,N
1557549935.5,286047000.8,N
1557549955.3,286046998.8,N
1557549975.1,286046998.5,N
1557549995.9,286046999.1,N
1557550015.7,286046996.9,N
1557550035.6,286046997.6,N
1557550055.4,286046995.0,Y
1557550075.2,286046999.3,P
1557550095.1,286046998.2,P
1557550096.0,286046998.2,P
1557550115.8,286046998.5,N
1557550135.7,286046997.0,Y
1557550155.5,286047001.2,P
1557550175.3,286046998.6,N
1557550195.2,286047000.4,N
1557550215.0,286047001.6,N
1557550215.9,286047001.6,N
1557550235.8,286047003.8,N
1557550255.6,286047004.0,N
1557550275.4,286047002.5,N
1557550295.3,286046999.9,N
1557550315.1,286047002.3,N
1557550335.8,286047000.2,N
1557550355.7,286047000.8,N
1557550375.5,286047000.8,N
1557550395.4,286047001.0,N
1557550415.2,286046998.4,N
1557550435.0,286046998.1,N
1557550435.9,286046998.1,N
1557550455.8,286047001.2,N
1557550475.6,286047001.9,N
1557550495.5,286047001.5,N
1557550515.3,286047001.7,N
1557550535.1,286047001.7,N
1557550555.9,286047005.7,Y
1557550575.7,286047005.8,P
1557550595.5,286047003.9,N
1557550615.4,286047003.1,N
1557550635.2,286047001.5,N
1557550655.1,286046999.8,N
1557550656.0,286046999.8,N
1557550675.1,286047001.7,N
1557550676.0,286047001.7,N
1557550695.8,286047001.4,N
1557550715.6,286047004.0,N
1557550735.5,286047003.6,N
1557550755.3,286047003.2,N
1557550775.1,286047005.2,Y
1557550795.9,286047001.3,P
